Location: Newark
(48.6461°N, 4.3644°W)
Time: 02:05:10
(UTC+00:00)

Vanguard 2 Rocket - All Passes

Search period start: 21 January 2020 00:00
Search period end: 31 January 2020 00:00
Orbit: 554 x 3326 km, 32.9° (Epoch: 20 January)

Date Brightness Start Highest point End Pass type
(mag) Time Alt. Az. Time Alt. Az. Time Alt. Az.
21 Jan - 07:07:30 10° SSW 07:12:11 22° SSE 07:18:51 10° ESE visible
21 Jan - 09:18:07 10° WSW 09:24:50 29° S 09:35:15 10° SE daylight
21 Jan - 11:30:57 10° WSW 11:38:41 22° SSW 11:49:25 10° SSE daylight
22 Jan - 06:09:56 10° S 06:13:06 15° SSE 06:17:07 10° ESE visible
22 Jan - 08:19:30 10° SW 08:25:10 27° S 08:33:48 10° ESE daylight
22 Jan - 10:31:28 10° WSW 10:38:31 24° SSW 10:48:46 10° SSE daylight
22 Jan - 12:48:03 10° SW 12:52:38 12° SSW 12:57:55 10° S daylight
23 Jan - 07:21:10 10° SW 07:25:47 23° SSE 07:32:26 10° ESE visible
23 Jan - 09:32:24 10° WSW 09:38:36 25° S 09:47:48 10° SE daylight
23 Jan - 11:46:38 10° SW 11:52:23 15° SSW 11:59:36 10° S daylight
24 Jan - 06:23:10 10° SSW 06:26:39 17° SSE 06:31:09 10° ESE visible
24 Jan - 08:33:37 10° SW 08:38:56 24° S 08:46:44 10° SE daylight
24 Jan - 10:46:32 10° SW 10:52:18 18° SSW 10:59:57 10° SSE daylight
25 Jan - 05:26:00 10° S 05:27:40 11° SSE 05:29:31 10° SE visible
25 Jan - 07:35:07 10° SW 07:39:31 21° S 07:45:43 10° SE daylight
25 Jan - 09:47:07 10° SW 09:52:25 19° SSW 09:59:42 10° SSE daylight
26 Jan - 06:36:52 10° SSW 06:40:19 18° SSE 06:44:49 10° SE visible
26 Jan - 08:48:06 10° SW 08:52:46 19° S 08:59:11 10° SSE daylight
26 Jan - 11:03:48 10° SW 11:06:06 11° SSW 11:08:39 10° S daylight
27 Jan - 05:39:01 10° SSW 05:41:15 13° SSE 05:43:53 10° SE visible
27 Jan - 07:49:23 10° SW 07:53:19 18° S 07:58:37 10° SE daylight
27 Jan - 10:02:58 10° SW 10:06:16 13° SSW 10:10:13 10° S daylight
28 Jan - 06:50:55 10° SW 06:54:05 16° S 06:58:05 10° SE visible
28 Jan - 09:03:20 10° SW 09:06:38 14° SSW 09:10:41 10° SSE daylight
29 Jan - 05:52:43 10° SSW 05:54:59 13° S 05:57:37 10° SE visible
29 Jan - 08:04:15 10° SW 08:07:11 14° S 08:10:47 10° SSE daylight
30 Jan - 04:55:13 10° S 04:55:57 10° SSE 04:56:42 10° SSE visible
30 Jan - 07:05:29 10° SSW 07:07:54 13° S 07:10:46 10° SSE visible
